Zurück zum Katalog

COSMOS 839 DEB

AktivUNKNOWN
NORAD 10448·DEBRIS·🇷🇺 Russia

Gestartet Jul 8, 1976 von Plesetsk Cosmodrome

Loading…

Nächste Überflüge (nächste 24 Stunden)

TLE

AktuellSource: Space-Track

Epoche: Sep 14, 2026, 07:45 UTC

1 10448U 76067Z   26257.32331966  .00000036  00000-0  26665-3 0  9995
2 10448  66.1668 224.6992 0742315  47.5285  93.8105 12.37370862265658

Verfolge COSMOS 839 DEB in Echtzeit mit AllMySat

Download on the App Store